Погода в Пурпе

Россия / Ямало-Ненецкий автономный округ     64°28′34″N   76°41′37″E
темп.,
°C
ветер,
м/с
пор.,
м/с
влажн.,
%
обл.,
%
осадки,
мм/ч
давл.,
гПа
погр.,
м
13 апреля, вт
вт1323:000з11188997 0.0 1017725
02:00−1зсз111685100 0.1 1018917
05:00−3з10178794 0.1 1018499
08:00−2з11178888 0.0 1018918
11:000зсз121782100 0.3 10171243
14:000зсз1014815 0.1 10171118
17:000зсз9148185 0.2 1018670
20:00−4з6118794 0.0 1018164
14 апреля, ср
ср1423:00−5з5890100 0.0 101893
02:00−4з3593100 0.0 101697
05:00−4сз3493100 0.0 101674
08:00−3ссз348916 0.0 1017173
11:00−1сз468539 0.0 1018425
14:00−1сз5684100 0.0 1019585
17:00−1зсз2288100 0.0 101955
20:00−2ююз4688100 0.0 101776
15 апреля, чт
чт1523:00−1ю91597100 0.4 1012412
02:00+2юз101799100 0.1 1007351
05:00+2зюз91599100 0.2 1004337
08:00+3юз1019100100 0.0 1000427
11:00+3з1221100100 0.8 998536
14:00+2зсз111699100 0.0 1000687
17:00+1зсз10158495 0.1 1002842
20:00−1зсз121781100 0.1 1003708
16 апреля, пт
пт1623:00−9ссз101386100 0.1 1008721
02:00−12ссз91386100 0.0 1012658
05:00−14ссз9138350 0.0 1016679
08:00−14ссз9157725 0.0 1018820
11:00−12ссз10137062 0.0 10201027
14:00−11сз101269100 0.0 10221271
17:00−11сз9117075 0.1 10231155
20:00−13сз710805 0.0 1024561
17 апреля, сб
сб1723:00−14сз59855 0.0 1023315
02:00−15сз478670 0.0 1023213
05:00−15сз348683 0.0 1022141
08:00−13ссз2275100 0.0 1022237
11:00−11ссз226416 0.0 1021510
14:00−10ссз436311 0.0 1020779
17:00−11ссз44675 0.0 1021685
20:00−12ссз45805 0.0 1021266